DW8016 Weather Reports


Display with metric or nautical units.
time (UTC)temp
F
wind
direction
speed
MPH
gust
MPH
rain 1hr
in
rain 24hr
in
rain mn
in
humidity
%
barometer
mb
20260508065210 52 320 0.0 0.0 0.00 0.00 0.00 70 1011.8
20260508064201 52 320 0.0 0.0 0.00 0.00 0.00 69 1011.6
20260508063200 52 320 0.0 0.0 0.00 0.00 0.00 69 1011.5
20260508062143 52 320 0.0 4.0 0.00 0.00 0.00 69 1011.4
20260508061205 51 322 0.0 0.0 0.00 0.00 0.00 72 1011.4
20260508060158 51 269 0.0 3.0 0.00 0.00 0.00 80 1011.4
20260508055209 51 268 0.0 0.0 0.00 0.00 0.00 81 1011.3
20260508054147 51 268 0.0 0.0 0.00 0.00 0.00 80 1011.3
20260508053139 52 268 0.0 0.0 0.00 0.01 0.00 80 1011.3
20260508052203 51 268 0.0 4.0 0.00 0.01 0.00 81 1011.3
20260508051221 51 269 0.0 4.0 0.00 0.01 0.00 82 1011.2
20260508045059 52 265 0.0 0.0 0.00 0.01 0.00 83 1011.0
20260508044038 52 265 0.0 0.0 0.00 0.01 0.00 84 1010.9
20260508043027 52 265 0.0 1.0 0.00 0.02 0.00 83 1010.8
20260508040925 52 264 0.0 0.0 0.00 0.04 0.00 82 1010.6
20260508035920 53 264 0.0 0.0 0.00 0.04 0.04 81 1010.5
20260508034937 52 280 0.0 3.0 0.00 0.04 0.04 81 1010.3
20260508033944 53 263 0.0 4.0 0.00 0.04 0.04 80 1010.3
20260508031757 53 251 0.0 4.0 0.00 0.04 0.04 78 1010.3
20260508030752 53 223 0.0 1.0 0.00 0.04 0.04 77 1010.2
20260508025810 53 223 0.0 0.0 0.00 0.04 0.04 76 1010.2
20260508024803 54 224 0.0 1.0 0.00 0.04 0.04 75 1010.2
20260508023821 54 229 0.0 3.0 0.00 0.04 0.04 74 1010.2
20260508022810 54 229 0.0 3.0 0.00 0.04 0.04 74 1010.2
20260508021824 54 228 0.0 2.0 0.00 0.04 0.04 73 1010.1
20260508020757 54 257 0.0 2.0 0.00 0.04 0.04 73 1010.0
20260508015808 54 210 1.0 4.0 0.00 0.04 0.04 73 1010.1
20260508014743 54 223 0.0 5.0 0.00 0.04 0.04 72 1010.0
20260508012602 55 171 0.0 4.0 0.00 0.04 0.04 71 1009.8
20260508011602 55 209 0.0 1.0 0.00 0.04 0.04 70 1009.7
20260508005411 56 202 1.0 6.0 0.00 0.04 0.04 69 1009.4
20260508003224 56 182 1.0 8.0 0.00 0.04 0.04 67 1009.1
20260508001033 57 173 2.0 6.0 0.00 0.04 0.04 65 1008.9
20260507235958 57 166 3.0 5.0 0.00 0.04 0.04 64 1008.8
20260507233847 58 187 2.0 8.0 0.00 0.04 0.04 61 1008.4
20260507232858 59 109 1.0 9.0 0.00 0.04 0.04 60 1008.3
20260507231855 59 215 2.0 9.0 0.00 0.04 0.04 60 1008.2
20260507230911 60 252 3.0 9.0 0.00 0.04 0.04 59 1008.1
20260507225918 60 199 2.0 10.0 0.00 0.04 0.04 58 1008.0
20260507224854 61 264 3.0 10.0 0.00 0.04 0.04 56 1007.9
20260507223851 61 202 3.0 10.0 0.00 0.04 0.04 54 1007.8
20260507222900 61 215 3.0 10.0 0.00 0.04 0.04 53 1007.7
20260507221853 62 238 2.0 7.0 0.00 0.04 0.04 53 1007.6
20260507220911 62 195 4.0 11.0 0.00 0.04 0.04 53 1007.6
20260507215839 62 196 3.0 11.0 0.00 0.04 0.04 53 1007.5
20260507214816 61 158 4.0 10.0 0.00 0.04 0.04 55 1007.5
20260507212656 62 166 3.0 12.0 0.00 0.04 0.04 53 1007.7
20260507211652 62 237 4.0 12.0 0.00 0.04 0.04 53 1007.8
20260507210637 63 128 4.0 10.0 0.00 0.04 0.04 53 1007.7
20260507205639 63 189 4.0 10.0 0.00 0.04 0.04 53 1007.7
20260507204647 63 255 4.0 10.0 0.00 0.04 0.04 51 1007.6
20260507203651 64 180 3.0 11.0 0.00 0.04 0.04 50 1007.7
20260507202649 63 150 4.0 11.0 0.00 0.04 0.04 50 1007.6
20260507200540 63 225 3.0 8.0 0.00 0.04 0.04 51 1007.7
20260507195554 63 279 4.0 10.0 0.00 0.04 0.04 51 1007.6
20260507194606 63 186 3.0 10.0 0.00 0.04 0.04 50 1007.5
20260507193629 63 142 2.0 11.0 0.00 0.04 0.04 49 1007.7
20260507192629 64 191 2.0 11.0 0.00 0.04 0.04 48 1008.0
20260507191613 65 134 2.0 6.0 0.00 0.04 0.04 45 1008.2
20260507185455 65 258 1.0 7.0 0.00 0.04 0.04 42 1008.5
20260507184449 63 159 1.0 4.0 0.00 0.04 0.04 43 1008.4
20260507183443 62 111 2.0 6.0 0.00 0.04 0.04 44 1008.6
20260507182442 62 165 2.0 6.0 0.00 0.04 0.04 44 1008.9
20260507181455 62 82 3.0 6.0 0.00 0.04 0.04 44 1008.9
20260507180454 62 89 1.0 5.0 0.00 0.04 0.04 45 1009.2
20260507175510 62 144 0.0 0.0 0.00 0.04 0.04 45 1009.3
20260507174450 61 84 2.0 5.0 0.00 0.04 0.04 46 1009.3
20260507173427 62 115 0.0 3.0 0.00 0.04 0.04 46 1009.5
20260507172424 61 105 0.0 1.0 0.00 0.04 0.04 48 1009.9
20260507171353 60 112 0.0 5.0 0.00 0.04 0.04 47 1010.0
20260507170353 60 93 0.0 4.0 0.00 0.04 0.04 47 1010.2
20260507165345 60 127 0.0 6.0 0.00 0.04 0.04 47 1010.5
20260507164358 60 95 1.0 6.0 0.00 0.04 0.04 46 1010.3
20260507163337 59 96 0.0 4.0 0.00 0.04 0.04 47 1010.5
20260507162352 59 5 0.0 4.0 0.00 0.04 0.04 48 1010.6
20260507161402 59 311 0.0 1.0 0.00 0.04 0.04 56 1010.7
20260507160418 58 311 0.0 1.0 0.00 0.04 0.04 54 1010.9
20260507155356 58 311 0.0 0.0 0.00 0.04 0.04 57 1011.0
20260507154408 57 311 0.0 4.0 0.00 0.04 0.04 54 1010.9
20260507153429 57 257 0.0 1.0 0.00 0.04 0.04 57 1011.2
20260507151257 56 257 0.0 3.0 0.00 0.05 0.04 58 1011.1
20260507150240 56 248 0.0 1.0 0.00 0.07 0.04 59 1011.3
20260507143000 54 284 0.0 0.0 0.00 0.10 0.04 69 1011.7
20260507142001 54 284 0.0 0.0 0.00 0.12 0.04 67 1011.7
20260507140957 54 284 0.0 0.0 0.00 0.12 0.04 70 1011.8
20260507140008 54 226 0.0 0.0 0.00 0.17 0.04 71 1011.8
20260507135024 54 226 0.0 0.0 0.00 0.20 0.04 71 1011.8
20260507134011 54 226 0.0 0.0 0.00 0.22 0.04 73 1012.0
20260507133010 54 226 0.0 0.0 0.00 0.25 0.04 74 1012.1
20260507131941 54 226 0.0 0.0 0.00 0.30 0.04 75 1011.8
20260507130951 54 226 0.0 0.0 0.00 0.32 0.04 76 1011.9
20260507130006 54 226 0.0 0.0 0.00 0.32 0.04 73 1011.6
20260507125016 54 222 0.0 0.0 0.00 0.32 0.04 73 1011.7
20260507124003 54 222 0.0 0.0 0.00 0.32 0.04 73 1011.8
20260507122940 55 222 0.0 0.0 0.00 0.32 0.04 77 1012.0
20260507121937 55 333 0.0 0.0 0.00 0.34 0.04 80 1011.6
20260507121001 55 333 0.0 1.0 0.00 0.35 0.04 82 1011.7
20260507120014 55 333 0.0 0.0 0.00 0.35 0.04 87 1011.6
20260507115022 55 333 0.0 0.0 0.00 0.35 0.04 87 1011.4
20260507114018 55 333 0.0 1.0 0.00 0.35 0.04 86 1011.3
20260507112958 55 333 0.0 0.0 0.00 0.35 0.04 90 1011.2
20260507111937 55 333 0.0 0.0 0.00 0.35 0.04 89 1011.3
20260507110930 55 333 0.0 0.0 0.00 0.35 0.04 89 1011.1
20260507105922 55 333 0.0 0.0 0.00 0.35 0.04 89 1011.2
20260507104852 55 343 0.0 0.0 0.00 0.35 0.04 90 1011.1
20260507103838 55 343 0.0 0.0 0.00 0.35 0.04 90 1010.9
20260507102813 55 343 0.0 0.0 0.00 0.35 0.04 90 1010.8
20260507100650 55 343 0.0 0.0 0.00 0.35 0.04 90 1010.7
20260507095715 55 343 0.0 0.0 0.00 0.35 0.04 90 1010.5
20260507094728 55 343 0.0 0.0 0.00 0.35 0.04 89 1010.6
20260507093714 55 343 0.0 0.0 0.00 0.35 0.04 89 1010.6
20260507092738 55 343 0.0 0.0 0.00 0.35 0.04 88 1010.5
20260507091742 55 343 0.0 0.0 0.00 0.35 0.04 89 1010.1
20260507090747 55 343 0.0 0.0 0.00 0.35 0.04 89 1010.3
20260507085714 55 343 0.0 0.0 0.00 0.35 0.04 88 1010.5
20260507084700 56 343 0.0 0.0 0.00 0.35 0.04 89 1010.2
20260507083706 56 343 0.0 0.0 0.00 0.35 0.04 90 1010.2
20260507080416 56 343 0.0 0.0 0.00 0.35 0.04 91 1009.6
20260507075437 56 343 0.0 0.0 0.00 0.35 0.04 91 1009.6
20260507074427 56 343 0.0 0.0 0.00 0.35 0.04 91 1009.5
20260507072333 56 343 0.0 0.0 0.00 0.35 0.04 90 1009.3
20260507071306 57 343 0.0 0.0 0.00 0.35 0.04 91 1009.4